Погода в Новом Никулино

Россия / Ульяновская область     54°26′24″N   47°41′08″E
В апреле 2022 года жителям России запретили посещать сайт meteo.paraplan.net по решению Генеральной прокуратуры. Аудитория сайта уменьшилась в 10 раз. Владельцы сайта не видят смысла в поддержке погодного сервера в таких условиях. Сайт будет закрыт в октябре.
темп.,
°C
ветер,
м/с
пор.,
м/с
влажн.,
%
обл.,
%
осадки,
мм/ч
давл.,
гПа
погр.,
м
30 сентября, пт
пт3001:00+10с3596100 0.0 1016137
04:00+11ссв2397100 0.0 1018131
07:00+11в2398100 0.0 1020189
10:00+11вюв3393100 0.1 1021286
13:00+12вюв3386100 0.0 1022348
16:00+13вюв3382100 0.0 1023391
19:00+11вюв3590100 0.0 1024186
22:00+12юв3688100 0.0 1024201
1 октября, сб
сб101:00+11юв3688100 0.0 1023182
04:00+11юв358988 0.0 1023151
07:00+10ююв359444 0.0 102496
10:00+13ююв577850 0.0 1023384
13:00+16ю566785 0.0 1022759
16:00+17ю566458 0.0 10211007
19:00+14ююв41079100 0.0 1020234
22:00+13ююв51280100 0.0 1018294
2 октября, вс
вс201:00+13ююв51381100 0.0 1017367
04:00+14ю6147842 0.0 1015382
07:00+13ю6158072 0.0 1014412
10:00+16ю8157486 0.1 1013627
13:00+19ююз71267100 0.1 1012873
16:00+19ююз6106877 0.1 10121162
19:00+16ю3783100 0.3 1012140
22:00+15ююв3993100 2.4 1012258
3 октября, пн
пн301:00+14ююв5119393 0.9 1012342
04:00+15ю61291100 2.1 1012384
07:00+14ююв6148923 0.3 1011407
10:00+16ююв71575100 0.3 1012541
13:00+18ю91759100 0.0 1013881
16:00+18ю91753100 0.0 1013967
19:00+17ю91750100 0.0 1015967
22:00+16ююв101845100 0.0 1015961
4 октября, вт
вт401:00+15ююв91843100 0.0 1016874
04:00+14ююв81542100 0.0 1017848
07:00+12ююв81540100 0.0 1018700
10:00+13ююв81540100 0.0 1019792
13:00+13ю81546100 0.0 1021971
16:00+12ю61459100 0.7 1022832
19:00+11ю71477100 0.5 1024860
22:00+11ю71467100 0.8 1024906